Regional Weather Roundup
Issued by NWS

Home | Current Version | Previous Version | Text Only | Print | Product List | Glossary On
Versions: 1 2 3 4 5 6 7 8 9 10 11 12 13 14 15 16 17 18 19 20 21 22 23 24 25 26 27 28 29 30 31 32 33 34 35 36 37 38 39 40 41 42 43 44 45 46 47 48 49 50
000
ASUS45 KABQ 202301
RWRNM
NEW MEXICO REGIONAL WEATHER ROUNDUP
NATIONAL WEATHER SERVICE ALBUQUERQUE NM
400 PM MST SAT JAN 20 2018

NOTE: "FAIR" MEANS FEW OR NO CLOUDS BELOW 12,000 FEET AGL WITH NO
       SIGNIFICANT WEATHER OR OBSTRUCTIONS TO VISION.

      THIS PRODUCT IS RELEASED AS TWO VERSIONS.  ONE VERSION NEAR
      THE TOP OF THE HOUR CONTAINING PRELIMINARY DATA FROM ALBUQUERQUE
      AND OTHER STATIONS.  A FINAL VERSION WITH ADDITIONAL DATA IS
      ISSUED ABOUT 10 MINUTES AFTER THE HOUR.

NMZ501-503-504-510>518-210000-
NORTHWEST PLATEAU/NORTHCENTRAL MOUNTAINS

CITY           SKY/WX    TMP DP  RH WIND       PRES   REMARKS
FARMINGTON     CLOUDY    55  24  30 S14G24    29.72S
LOS ALAMOS     FAIR      50  11  20 S12G23    29.86S
SANTA FE       FAIR      54  13  19 SW8       29.84S
TAOS           FAIR      52  14  22 SW14      29.85F
ANGEL FIRE     FAIR      48  13  23 SW22G30   29.87R

$$
NMZ402-403-502-505>509-210000-
WESTCENTRAL MOUNTAINS/SOUTHWEST MOUNTAINS

CITY           SKY/WX    TMP DP  RH WIND       PRES   REMARKS
GALLUP         CLOUDY    49  26  41 SW18G32   29.79R
GRANTS         FAIR      57  20  23 S21G31    29.81F
SILVER CITY    PTSUNNY   61  22  22 SW12G20   29.88F

$$
NMZ407-409-411-412-210000-
SOUTHERN DESERTS

CITY           SKY/WX    TMP DP  RH WIND       PRES   REMARKS
DEMING         FAIR      67  22  18 W23       29.86S
LAS CRUCES     FAIR      66  18  15 SW15G26   29.87F
HOLLOMAN AFB   FAIR      67  18  15 S14       29.87F
ALAMOGORDO     FAIR      66  16  14 S13G21    29.87S
T OR C         FAIR      65  20  17 SW23G36   29.80S

$$
NMZ519>523-210000-
CENTRAL VALLEYS/CENTRAL HIGHLANDS

CITY           SKY/WX    TMP DP  RH WIND       PRES   REMARKS
ALBUQUERQUE    PTSUNNY   60  16  18 SW12      29.80F
DOUBLE EAGLE   PTSUNNY   55  18  22 SE9       29.83F
MORIARTY ARPT  FAIR      58  16  18 S12       29.84F
CLINES CORNERS FAIR      53  13  20 SW22G31   29.86S
BELEN          FAIR      62  13  15 S25       29.79S
SOCORRO        FAIR      65  15  14 S17G23    29.80S

$$
NMZ524>526-539-540-210000-
SOUTHCENTRAL MOUNTAINS

CITY           SKY/WX    TMP DP  RH WIND       PRES   REMARKS
RUIDOSO        FAIR      54  10  17 SW20G26   29.92S

$$
NMZ527>531-210000-
NORTHEAST HIGHLANDS/NORTHEAST PLAINS

CITY           SKY/WX    TMP DP  RH WIND       PRES   REMARKS
LAS VEGAS      FAIR      54  13  19 SW21G31   29.81S
RATON          FAIR      61  10  13 W12       29.72F
CLAYTON        FAIR      66  13  12 S21G30    29.71S

$$
NMZ532>537-210000-
EASTCENTRAL PLAINS

CITY           SKY/WX    TMP DP  RH WIND       PRES   REMARKS
TUCUMCARI      FAIR      73  12   9 SW16      29.71F
CANNON AFB     FAIR      69  12  11 SW16      29.81R
CLOVIS AIRPORT FAIR      69  14  12 SW13      29.80S

$$
NMZ028-029-538-210000-
SOUTHEAST PLAINS

CITY           SKY/WX    TMP DP  RH WIND       PRES   REMARKS
ROSWELL        FAIR      77  13   9 CALM      29.76S
ARTESIA        FAIR      72  18  13 SW22G30   29.81R
CARLSBAD       FAIR      72  17  12 W14       29.81R
HOBBS          SUNNY     72  12  10 SW13G18   29.84R


$$




USA.gov is the U.S. government's official web portal to all federal, state and local government web resources and services.